Temperature
19 18 17 17 17 17 17 17 16 16 16 16 16 16 16 16 16 15 15 15 15 16 16 16 15 15 15 15 15 15 16 16 16 16 16 16 16 16 15 15 14 14 13
21 19 17 17 17 17 17 17 16 16 16 16 16 16 16 16 16 15 15 15 16 16 16 16 16 15 15 15 15 16 16 16 16 16 16 16 16 15 15 15 14 14 14
21 19 18 17 17 17 17 16 16 16 16 16 16 17 16 16 16 15 15 16 16 16 16 16 16 16 16 16 16 16 16 16 16 16 16 16 15 15 15 15 14 14 14
20 19 18 17 17 17 17 16 16 16 16 16 17 17 16 16 16 16 16 16 16 16 17 17 16 16 16 16 16 16 16 16 16 16 16 15 15 15 14 14 14 14 14
20 19 18 17 17 17 16 16 16 16 16 16 17 17 16 16 16 16 16 16 16 16 16 16 16 16 16 16 16 16 16 16 16 16 15 15 15 14 14 14 14 14 13
19 19 18 17 17 17 17 16 16 16 16 17 17 17 16 16 16 16 16 16 16 16 16 16 16 16 16 16 16 16 16 15 15 15 15 15 14 14 14 14 13 13 13
19 18 18 17 17 17 17 17 17 17 17 17 17 17 16 16 16 16 16 16 16 16 16 16 16 16 16 16 16 16 16 15 15 15 15 15 14 14 14 13 13 13 13
18 18 17 17 17 17 17 17 17 17 17 18 17 17 17 17 17 17 17 17 17 17 16 16 16 16 16 16 16 16 15 15 15 15 15 14 14 14 13 13 13 13 13
17 17 17 17 16 17 17 17 17 17 17 18 18 18 18 17 17 17 17 17 17 17 17 16 16 16 16 16 16 16 15 15 15 15 14 14 14 13 13 13 13 13 13
16 16 17 17 16 16 17 17 17 17 17 17 18 18 18 18 18 17 17 17 17 17 17 16 16 16 16 16 16 16 15 15 15 15 14 14 13 13 13 13 13 12 13
15 16 16 16 16 16 16 16 16 16 17 17 17 18 18 18 18 18 17 17 17 17 16 16 16 16 16 16 16 16 15 15 15 14 14 13 13 13 13 13 12 12 12
15 15 16 16 16 16 16 16 16 16 16 17 17 17 17 17 17 17 17 17 17 17 16 16 16 16 16 16 16 15 15 15 15 14 14 13 13 13 12 12 12 12 13
16 16 16 16 16 16 16 17 17 17 17 17 17 17 17 17 17 17 17 17 17 16 16 16 16 15 15 15 15 15 15 15 15 14 14 13 13 13 12 12 12 12 12
17 17 16 16 16 16 17 17 17 17 17 17 16 16 16 17 17 17 17 16 16 16 16 15 15 15 15 15 15 15 14 14 14 14 14 13 13 12 12 12 12 12 12
17 17 17 17 17 17 17 17 17 17 16 16 16 16 16 16 16 16 16 16 16 15 15 15 15 14 14 14 14 14 14 14 13 13 13 13 13 12 12 12 12 12 12
17 17 17 17 16 16 16 16 16 16 16 16 16 16 16 16 16 16 16 15 15 15 15 14 14 14 14 13 13 13 13 13 13 13 13 13 12 12 12 12 12 11 11
17 17 17 16 16 16 16 16 16 16 16 16 16 15 15 15 15 15 15 15 15 14 14 14 14 13 13 13 13 13 13 13 12 12 12 12 12 12 12 12 11 11 11
16 16 16 16 16 16 16 16 15 15 15 15 15 15 15 15 15 15 15 15 14 14 14 13 13 13 13 13 13 13 12 12 12 12 12 12 12 12 12 11 11 11 11
17 16 16 16 16 16 16 15 15 15 15 15 15 15 15 15 14 14 14 14 14 14 13 13 13 13 13 13 13 13 13 12 12 12 12 12 12 12 12 11 11 11 11
17 17 16 16 16 16 15 15 15 15 15 15 15 15 15 15 14 14 14 14 14 13 13 13 13 13 13 13 13 12 13 12 12 12 12 12 12 12 12 11 11 11 11
17 17 17 16 16 16 16 15 15 15 15 15 15 15 14 14 14 14 14 14 14 13 13 13 13 13 13 13 12 12 12 12 12 12 12 12 12 12 12 11 11 10 10
17 17 17 16 16 16 16 15 15 15 15 15 15 15 14 14 14 14 14 14 14 13 13 13 13 13 12 12 12 11 11 11 12 12 12 12 12 11 11 11 11 10 10
17 17 16 16 16 16 16 15 15 15 15 15 15 15 14 14 14 14 14 14 13 13 13 13 13 12 12 12 12 11 11 11 11 11 11 11 11 11 11 11 10 10 9
16 16 16 16 15 15 15 15 15 15 14 14 14 14 14 14 14 14 14 13 13 13 13 13 12 12 12 11 11 11 10 10 10 10 10 10 10 10 10 10 10 9 9
15 15 15 15 14 14 14 14 14 14 14 13 13 13 13 13 13 13 13 13 13 12 12 12 12 12 12 11 11 10 10 10 10 9 9 9 9 9 9 9 9 9 8
14 14 13 13 13 13 13 13 13 12 12 12 12 12 12 12 12 12 12 12 12 12 12 11 11 11 11 11 10 10 10 9 9 9 8 8 8 8 8 8 8 8 8
Wind_Speed
6 11 19 17 15 15 14 14 14 15 15 14 13 12 11 11 11 12 13 13 14 15 15 15 16 17 17 18 18 18 17 16 15 15 14 13 12 11 10 9 9 8 9
9 15 20 18 16 15 14 15 15 15 15 13 12 11 11 11 12 13 13 13 14 14 14 14 15 16 17 17 17 16 15 15 13 12 11 10 10 10 9 8 7 7 8
11 16 20 18 17 15 15 15 15 15 14 13 11 10 10 11 13 14 14 13 13 13 13 14 14 15 15 15 14 13 12 11 10 9 8 7 6 8 8 7 6 7 7
14 15 17 18 17 16 16 16 16 15 14 12 10 10 11 12 14 14 13 13 13 12 13 13 13 13 13 12 11 9 8 7 6 6 7 6 6 6 6 6 6 6 6
12 14 17 18 18 17 17 17 16 15 14 12 10 10 11 13 14 14 13 13 12 12 12 12 12 11 11 10 9 7 6 5 6 6 5 5 5 5 6 7 7 7 8
9 14 18 19 18 18 18 17 16 16 14 12 11 11 12 14 14 13 13 12 11 10 10 10 10 9 9 9 8 7 6 6 6 4 4 5 5 4 7 8 9 9 10
8 13 17 19 18 18 18 17 17 16 14 13 12 11 12 13 13 12 11 10 9 9 8 8 8 8 8 8 8 8 6 6 5 3 3 4 4 4 8 9 10 11 11
8 12 16 18 18 18 18 17 17 15 14 13 12 12 11 12 11 11 10 9 8 7 6 6 6 6 6 7 7 7 6 5 4 2 3 3 3 5 8 9 9 10 10
8 9 11 15 17 17 18 17 16 15 14 13 12 11 11 10 10 10 9 8 7 6 5 4 4 4 5 6 6 6 4 4 3 1 2 2 1 5 7 8 8 8 8
6 6 8 12 14 15 16 16 16 15 14 12 12 11 10 10 9 9 8 7 6 5 4 3 3 3 4 5 5 5 4 4 2 0 1 1 1 5 7 6 6 6 6
7 5 6 8 10 12 13 14 15 14 13 12 11 11 10 8 7 7 7 6 6 5 4 2 2 2 3 4 4 4 3 3 2 1 2 2 3 5 6 5 4 4 4
10 7 5 6 8 10 10 10 11 11 11 10 10 11 9 8 6 5 5 5 5 4 3 2 1 1 2 2 2 2 2 2 2 2 4 4 4 4 5 4 2 1 1
9 8 7 6 8 8 7 8 8 9 10 10 10 10 9 7 6 4 4 4 4 4 4 3 2 2 1 1 1 1 1 2 3 4 5 6 6 5 4 4 3 2 1
9 9 7 7 7 8 8 8 8 8 8 9 10 11 9 7 6 5 5 6 6 5 5 5 4 5 4 4 3 3 4 5 6 7 7 8 8 8 7 6 5 4 4
9 9 8 7 7 7 7 7 8 8 9 11 11 12 12 8 6 7 7 7 8 7 7 7 6 6 6 6 5 5 6 7 8 10 10 11 10 10 9 8 8 7 6
8 8 7 8 8 8 6 6 7 10 10 10 11 13 14 12 9 7 7 7 9 10 10 9 8 7 6 6 6 7 8 9 10 12 13 13 13 13 12 12 11 10 9
7 7 7 8 7 7 7 8 8 10 10 10 11 14 14 14 12 10 7 6 10 12 11 9 8 7 5 5 6 8 9 10 11 13 15 15 16 16 16 15 14 13 12
6 6 7 7 8 8 7 7 8 10 10 10 12 12 14 15 15 11 7 7 12 11 9 6 5 5 6 6 6 6 7 9 11 14 15 16 17 17 18 18 18 16 15
6 6 6 6 7 7 7 7 7 8 9 10 11 12 13 15 16 13 9 10 11 9 7 6 6 5 6 7 7 7 6 6 8 10 12 16 18 19 19 20 21 20 18
3 4 4 4 4 4 4 3 3 4 5 8 9 10 12 13 14 13 10 10 10 6 6 7 8 7 6 6 6 6 6 6 5 6 10 13 16 19 20 20 20 20 21
4 4 3 3 2 3 2 3 3 3 3 3 5 8 10 11 11 11 8 7 7 8 9 8 7 7 7 3 3 4 4 6 7 7 7 7 10 15 16 18 18 18 18
5 5 5 4 3 2 2 2 2 1 1 2 2 3 5 6 7 8 7 5 5 7 8 8 7 5 4 4 4 3 4 4 5 7 6 7 7 9 11 15 16 17 18
6 5 6 6 5 4 2 2 2 2 1 1 1 2 3 4 5 6 6 6 5 6 7 7 7 7 6 5 5 5 4 5 3 3 4 5 5 5 6 9 13 16 17
5 6 7 7 7 6 5 3 2 1 1 1 2 3 4 5 4 4 4 5 4 5 6 6 6 6 6 5 4 6 6 3 3 4 3 3 3 5 5 5 8 12 15
5 6 7 8 8 7 7 6 4 2 1 2 2 4 4 4 5 6 5 3 3 4 5 5 5 5 5 6 5 4 5 4 5 5 5 4 3 3 4 5 6 9 13
6 6 6 8 7 7 7 7 5 4 3 3 3 4 4 3 3 5 6 4 3 3 4 4 4 5 5 5 5 4 4 4 5 5 7 5 4 3 2 3 3 6 9
Wind_Direction
174 170 162 158 153 146 142 139 133 126 120 115 110 105 101 100 103 105 100 95 89 84 83 83 85 87 89 88 87 86 84 81 79 75 71 72 78 77 75 66 57 57 66
153 164 160 158 154 148 145 141 135 130 125 120 115 110 109 109 112 111 105 101 94 89 88 88 90 92 93 92 90 87 85 83 82 76 68 68 76 78 75 69 62 62 61
146 160 157 157 152 148 144 140 137 134 129 124 119 116 118 119 119 115 111 105 99 94 92 93 94 96 95 93 90 87 84 82 82 74 65 58 68 79 74 68 66 65 61
148 155 155 155 150 146 143 141 139 136 131 127 124 123 126 127 124 119 114 108 102 98 97 97 97 97 95 91 87 83 82 82 82 71 58 45 42 70 70 68 67 66 62
144 150 154 153 149 146 144 144 142 138 133 130 128 126 129 131 127 122 115 109 105 102 102 101 100 96 91 86 80 76 80 88 92 79 56 40 28 57 68 72 70 72 70
137 148 154 150 148 146 146 146 144 139 136 133 129 127 128 127 123 118 116 112 109 107 106 104 101 95 88 81 75 74 90 102 104 81 49 28 21 55 79 81 78 78 75
138 147 152 150 149 149 149 148 146 144 142 139 135 131 128 125 123 121 121 118 115 112 109 106 103 96 86 79 74 72 92 109 108 75 33 12 7 70 91 85 81 78 75
138 145 152 153 151 152 151 150 149 149 149 147 144 138 133 130 132 131 130 128 125 121 116 109 103 95 84 77 72 71 91 116 112 70 19 359 1 91 97 90 85 80 75
130 136 145 151 152 153 153 153 154 155 154 154 152 146 141 140 143 144 143 142 138 132 124 115 104 95 83 76 72 73 92 123 126 80 3 338 20 106 104 98 89 83 76
119 124 132 140 146 150 154 157 158 159 159 159 157 153 149 150 154 155 155 155 149 144 138 127 109 93 82 75 72 79 100 119 129 146 324 296 139 121 112 104 95 86 79
146 135 134 135 141 148 154 161 163 164 165 162 160 157 154 155 159 164 168 171 166 164 165 162 143 106 91 78 72 85 109 124 142 192 219 206 152 132 126 120 105 91 82
171 166 151 144 145 149 154 158 162 164 166 165 165 164 164 165 167 170 182 190 190 193 201 212 224 86 75 64 56 68 107 155 186 212 218 210 185 161 145 141 134 122 102
176 175 168 157 155 154 149 156 162 164 168 172 176 177 174 174 178 182 195 214 220 222 225 243 265 275 300 331 343 322 270 233 234 232 227 218 205 198 186 184 203 215 218
177 184 175 166 163 167 162 167 172 172 177 182 187 187 181 182 191 201 210 221 226 227 228 238 249 260 270 272 264 261 257 247 242 240 236 233 228 225 220 215 219 225 232
185 188 182 173 173 174 171 176 184 189 192 195 195 197 196 194 202 210 220 225 230 231 230 234 242 251 261 270 267 253 249 248 245 240 240 239 238 234 232 231 228 229 231
191 191 185 184 183 179 178 183 191 198 201 202 205 207 207 208 210 213 222 228 233 233 234 234 237 243 254 261 265 256 247 245 244 240 239 239 239 236 234 235 234 232 230
193 187 186 191 185 184 188 193 197 201 204 207 214 217 215 215 218 218 223 229 235 237 237 239 243 242 247 247 253 255 248 241 239 237 235 235 237 236 233 234 235 233 230
187 184 189 193 185 192 193 196 199 201 205 215 221 222 222 222 222 220 224 233 236 234 229 229 232 237 243 241 246 248 243 240 239 238 233 231 232 233 232 232 233 232 230
185 180 182 184 181 192 195 197 202 203 208 218 222 225 228 227 225 221 228 233 230 225 224 229 230 225 242 244 244 248 244 239 240 239 232 231 229 229 229 229 230 229 228
146 156 165 170 173 178 178 181 195 209 217 220 222 227 230 230 228 224 231 232 221 219 226 227 234 229 237 247 254 257 249 242 238 235 237 236 233 231 229 229 229 229 227
92 108 120 137 136 139 142 166 188 216 220 221 227 232 232 233 231 224 230 228 216 223 230 226 229 235 241 219 240 271 268 243 240 241 236 236 237 235 233 231 229 228 228
95 91 91 91 86 102 138 151 167 173 203 218 226 233 238 242 238 231 231 232 220 226 233 229 219 226 226 184 196 240 290 298 260 243 235 237 243 239 235 235 232 230 229
89 86 90 79 69 57 63 92 74 60 30 10 341 313 309 286 262 246 244 241 233 227 236 233 221 224 240 214 197 207 237 256 292 287 249 242 243 237 238 238 234 235 234
97 86 83 76 64 49 51 74 98 124 247 321 335 331 335 343 331 303 277 257 245 237 240 242 228 224 231 236 208 222 233 232 245 293 291 278 253 246 245 240 237 236 234
103 91 84 76 61 48 51 61 72 66 10 337 343 343 344 346 352 347 330 303 275 259 255 251 241 230 227 235 217 202 223 232 229 244 272 283 293 259 241 233 234 234 233
101 94 89 82 65 50 54 54 60 58 26 8 359 351 344 339 343 355 352 343 321 296 280 267 254 243 238 238 230 202 195 202 210 218 248 256 261 264 260 255 245 246 241
Height
1535 1539 1542 1546 1548 1551 1553 1554 1555 1556 1557 1558 1558 1558 1558 1558 1559 1559 1560 1560 1560 1560 1560 1560 1561 1562 1563 1563 1564 1564 1564 1564 1564 1564 1563 1563 1563 1562 1562 1562 1562 1562 1563
1535 1538 1542 1546 1549 1551 1553 1555 1556 1557 1558 1558 1558 1558 1559 1559 1560 1561 1562 1562 1562 1562 1561 1561 1562 1563 1564 1564 1565 1566 1566 1566 1566 1565 1565 1565 1564 1564 1564 1564 1564 1564 1565
1535 1538 1542 1546 1549 1551 1553 1555 1556 1557 1558 1559 1559 1559 1560 1561 1562 1563 1563 1564 1563 1563 1563 1563 1563 1564 1565 1566 1567 1567 1567 1567 1567 1567 1566 1566 1566 1566 1566 1566 1566 1566 1566
1536 1539 1542 1546 1549 1551 1553 1555 1557 1558 1559 1559 1560 1560 1561 1562 1563 1564 1565 1565 1565 1565 1565 1565 1566 1566 1567 1568 1568 1569 1569 1569 1569 1568 1568 1568 1568 1568 1568 1568 1568 1568 1568
1537 1540 1543 1547 1549 1552 1554 1556 1557 1558 1559 1560 1561 1562 1563 1564 1565 1566 1566 1567 1567 1567 1567 1567 1568 1568 1569 1569 1570 1570 1571 1570 1570 1570 1570 1569 1569 1569 1569 1569 1569 1570 1570
1537 1541 1544 1547 1550 1552 1554 1556 1558 1559 1560 1561 1562 1563 1564 1565 1566 1567 1568 1568 1569 1569 1569 1569 1570 1570 1571 1571 1572 1572 1572 1572 1572 1571 1571 1571 1571 1571 1571 1571 1571 1571 1571
1538 1541 1545 1548 1550 1553 1555 1557 1558 1560 1561 1562 1563 1564 1564 1565 1566 1567 1568 1569 1570 1570 1570 1571 1571 1572 1572 1572 1573 1573 1573 1573 1573 1573 1572 1572 1572 1572 1572 1572 1572 1572 1572
1539 1542 1545 1548 1551 1553 1555 1557 1559 1560 1562 1563 1564 1565 1565 1566 1567 1568 1569 1570 1571 1571 1572 1572 1572 1573 1573 1573 1574 1574 1574 1574 1574 1574 1573 1573 1573 1573 1573 1573 1573 1573 1573
1540 1543 1546 1548 1551 1553 1555 1557 1559 1561 1562 1563 1564 1565 1566 1567 1568 1568 1569 1570 1571 1572 1573 1573 1574 1574 1574 1574 1574 1575 1575 1575 1575 1575 1574 1574 1574 1574 1574 1574 1574 1573 1573
1540 1543 1546 1548 1551 1553 1555 1557 1559 1561 1562 1564 1565 1566 1567 1567 1568 1569 1570 1571 1572 1573 1573 1574 1574 1574 1574 1575 1575 1575 1576 1576 1575 1575 1575 1575 1575 1575 1574 1574 1574 1573 1572
1541 1543 1545 1548 1550 1553 1555 1557 1559 1560 1562 1563 1564 1565 1566 1567 1568 1569 1570 1571 1572 1573 1574 1574 1575 1575 1575 1575 1576 1576 1576 1576 1576 1575 1575 1575 1575 1575 1574 1574 1573 1573 1572
1540 1542 1545 1547 1550 1552 1554 1556 1558 1560 1561 1563 1564 1565 1566 1567 1568 1569 1570 1571 1571 1572 1573 1574 1574 1575 1575 1575 1575 1575 1575 1576 1575 1575 1575 1575 1575 1575 1574 1573 1572 1571 1570
1540 1542 1544 1546 1549 1551 1554 1556 1557 1559 1561 1562 1563 1564 1565 1566 1567 1568 1569 1570 1571 1572 1572 1573 1574 1574 1574 1574 1574 1574 1574 1575 1575 1575 1574 1574 1574 1573 1573 1572 1571 1570 1569
1539 1541 1543 1545 1548 1550 1553 1555 1557 1558 1560 1561 1563 1564 1565 1566 1567 1568 1568 1569 1570 1571 1571 1572 1572 1573 1573 1573 1573 1573 1573 1573 1573 1573 1573 1573 1573 1572 1571 1571 1570 1569 1568
1539 1540 1543 1545 1547 1550 1552 1554 1555 1557 1559 1560 1561 1563 1564 1565 1566 1567 1567 1568 1569 1569 1570 1570 1571 1571 1571 1571 1571 1571 1571 1571 1571 1571 1571 1571 1571 1571 1570 1569 1568 1567 1566
1538 1540 1542 1545 1547 1549 1551 1553 1555 1556 1558 1559 1560 1561 1562 1563 1564 1565 1566 1567 1567 1568 1568 1569 1569 1569 1569 1569 1569 1569 1569 1569 1569 1569 1568 1568 1568 1568 1568 1567 1566 1565 1564
1537 1539 1541 1544 1546 1548 1550 1552 1553 1555 1556 1557 1559 1560 1561 1562 1563 1563 1564 1565 1566 1566 1566 1566 1566 1566 1566 1566 1566 1566 1566 1566 1566 1565 1565 1565 1565 1565 1565 1564 1564 1563 1562
1536 1538 1540 1542 1544 1547 1549 1550 1552 1553 1554 1556 1557 1558 1559 1560 1561 1561 1561 1562 1563 1563 1563 1563 1563 1563 1563 1562 1562 1563 1562 1562 1562 1562 1561 1561 1561 1561 1561 1561 1560 1560 1559
1535 1537 1539 1541 1543 1545 1547 1548 1550 1551 1552 1553 1555 1556 1557 1557 1558 1558 1558 1559 1560 1559 1559 1559 1559 1559 1559 1558 1558 1558 1557 1557 1557 1557 1556 1556 1556 1556 1556 1556 1556 1556 1556
1533 1535 1537 1539 1540 1542 1544 1546 1547 1548 1549 1550 1551 1552 1553 1554 1554 1554 1555 1555 1555 1555 1555 1555 1555 1554 1554 1553 1552 1551 1551 1551 1551 1551 1551 1551 1550 1550 1550 1550 1551 1551 1551
1531 1533 1535 1536 1538 1540 1541 1542 1543 1544 1546 1547 1548 1548 1549 1549 1550 1550 1550 1550 1550 1550 1550 1550 1549 1549 1548 1548 1547 1545 1544 1544 1543 1544 1544 1544 1544 1544 1544 1544 1545 1545 1546
1528 1530 1532 1534 1535 1537 1538 1539 1540 1541 1542 1543 1544 1544 1544 1545 1545 1545 1545 1545 1545 1545 1545 1545 1544 1543 1543 1543 1542 1540 1538 1537 1536 1537 1537 1538 1538 1538 1538 1538 1538 1539 1539
1525 1527 1529 1530 1532 1534 1535 1536 1536 1537 1538 1539 1539 1540 1540 1540 1540 1539 1539 1539 1539 1539 1539 1539 1539 1538 1537 1537 1537 1537 1534 1531 1531 1531 1532 1532 1532 1532 1532 1532 1532 1532 1532
1522 1524 1526 1527 1529 1530 1531 1532 1532 1533 1533 1534 1534 1534 1534 1534 1534 1534 1533 1533 1533 1533 1532 1533 1533 1532 1532 1531 1531 1530 1530 1529 1527 1524 1525 1527 1527 1526 1526 1526 1525 1525 1525
1519 1521 1523 1524 1525 1526 1527 1527 1528 1528 1528 1528 1528 1529 1529 1529 1528 1528 1527 1527 1527 1526 1526 1526 1526 1526 1526 1525 1525 1525 1524 1524 1523 1521 1518 1519 1520 1520 1520 1520 1519 1519 1518
1516 1518 1520 1521 1522 1523 1523 1523 1524 1524 1524 1524 1524 1524 1523 1523 1522 1522 1521 1521 1521 1520 1520 1520 1520 1520 1520 1519 1519 1519 1519 1518 1518 1517 1514 1513 1513 1514 1514 1513 1513 1512 1512